SCP
1 1 1 1 1 2 2 2 2 2 3 2 1 1 1 1 1 1 1 1 1 2 2 2 2 2 2 2 1 1 1 1 1 1 1 1 1 1 1 1 1 1 1
1 1 1 1 2 2 2 2 3 3 3 2 2 1 2 1 1 1 1 1 2 2 2 2 2 2 2 2 2 1 1 1 1 1 1 1 1 1 1 1 1 1 1
1 1 1 2 2 2 3 3 4 4 4 3 2 2 2 2 2 2 2 2 2 2 2 2 2 3 3 3 2 2 1 1 1 1 1 1 1 1 1 1 1 1 1
2 2 2 3 3 4 3 4 4 5 4 3 2 2 2 2 2 2 2 2 2 2 2 2 3 3 4 4 3 2 2 1 1 1 1 1 1 1 1 1 1 1 1
2 2 2 3 4 4 5 4 4 4 3 3 3 3 2 2 2 2 2 2 2 2 2 2 3 3 4 4 4 3 2 2 1 1 1 1 1 1 1 1 1 1 1
2 2 2 3 4 5 6 5 4 3 3 3 3 3 2 2 2 2 2 2 2 3 3 3 3 4 5 5 5 4 2 2 2 2 1 1 1 1 1 1 1 1 1
3 3 3 3 4 6 6 6 4 3 3 3 3 3 3 2 2 2 2 2 2 3 3 4 4 5 6 7 6 5 3 2 3 3 2 1 1 1 1 1 1 1 1
4 4 3 3 4 6 6 5 4 3 3 4 4 4 3 3 2 2 2 2 2 2 3 3 4 5 7 8 8 6 4 3 3 3 2 2 2 1 1 1 1 1 1
4 4 3 3 3 5 5 4 4 4 4 4 4 4 4 4 3 3 2 2 2 2 2 3 3 5 7 8 8 7 5 3 3 3 3 2 2 2 2 2 1 1 1
4 4 3 2 3 3 4 4 4 4 4 4 4 5 5 5 4 4 3 3 3 3 3 3 3 4 5 7 7 6 5 4 4 3 3 2 2 2 2 2 2 1 1
3 3 3 3 2 3 3 4 4 5 5 5 5 5 5 5 5 5 5 5 4 4 3 3 2 3 4 5 5 5 5 5 4 4 3 3 3 2 2 2 2 2 2
2 3 3 3 3 3 3 4 4 5 6 7 7 7 6 6 5 5 6 6 5 5 4 3 2 3 3 4 5 5 5 5 5 4 3 3 3 3 3 2 2 2 2
2 3 3 3 3 3 3 4 4 5 6 8 9 8 7 6 6 6 7 6 6 5 5 4 4 4 4 4 4 4 5 5 4 4 3 3 3 4 4 4 3 3 3
3 3 3 3 3 3 4 4 4 4 5 7 9 9 8 7 7 7 7 7 7 6 6 6 6 6 5 4 4 4 4 4 4 4 3 3 3 4 4 5 5 4 4
3 3 3 4 4 4 4 5 5 4 5 6 8 9 8 7 7 7 8 8 8 8 8 8 8 6 5 3 3 3 3 3 4 3 3 3 3 3 3 4 5 5 4
3 4 4 4 4 4 5 5 5 5 5 6 7 8 8 7 7 7 8 9 8 8 9 9 8 6 5 3 3 3 3 4 4 4 4 3 3 2 2 3 3 3 3
3 3 4 4 4 4 4 5 5 5 4 5 7 7 7 7 7 7 8 9 8 9 10 9 7 5 5 4 3 3 3 4 4 5 4 4 3 3 3 2 2 2 2
3 3 3 3 4 4 4 4 4 4 4 4 5 6 7 7 7 7 8 8 8 8 9 8 6 5 6 5 4 2 3 3 4 4 4 4 3 3 3 3 3 3 3
4 4 3 3 4 4 4 4 4 4 3 3 4 6 7 7 7 7 7 7 7 7 6 5 4 5 6 6 3 2 3 4 4 4 4 3 3 3 3 4 4 4 4
4 4 4 4 4 4 4 4 4 4 4 3 4 6 7 8 8 8 7 6 6 6 5 3 3 5 6 4 2 1 3 4 4 4 4 3 3 3 2 3 4 5 5
3 4 5 5 5 5 5 5 5 5 5 4 5 6 8 8 9 10 8 6 5 4 4 3 3 4 4 3 1 1 2 3 3 4 4 4 3 2 2 3 4 4 4
4 5 5 5 5 5 6 7 8 8 7 6 6 7 8 9 10 11 10 7 5 4 3 3 3 3 2 2 1 0 1 1 2 2 3 3 2 1 1 1 2 3 2
4 4 5 5 5 6 7 7 9 9 9 8 9 11 12 12 13 13 11 8 6 4 3 2 2 2 2 1 1 0 0 0 1 1 1 1 1 0 0 1 1 2 2
3 4 4 4 4 5 7 8 9 10 10 9 11 14 17 16 16 14 12 9 7 5 3 2 2 2 2 1 1 1 1 0 1 1 1 0 0 0 0 1 1 1 2
4 5 5 5 5 5 7 8 10 10 9 10 12 15 17 18 17 15 11 8 7 5 3 2 2 2 2 1 1 0 1 1 0 0 0 0 1 1 1 1 1 1 2
5 5 6 7 6 5 6 7 9 9 9 10 11 14 16 17 17 14 10 7 6 5 3 2 2 2 1 1 0 0 0 0 0 0 0 1 1 1 1 1 1 1 1
Wind_Speed
7 7 7 7 6 6 6 5 5 5 4 3 3 3 3 2 2 2 1 2 2 2 2 2 1 2 1 1 1 1 2 2 1 2 1 2 1 1 1 0 0 1 0
8 7 7 7 7 6 6 6 6 5 5 4 3 2 2 2 2 1 2 2 2 2 2 2 2 1 1 1 1 2 2 1 1 2 2 2 3 2 1 1 1 0 0
8 9 8 8 7 7 6 5 6 5 6 5 4 3 3 2 3 2 2 3 3 2 2 2 2 2 2 1 2 2 3 2 2 2 3 2 0 1 2 2 1 1 0
8 8 8 8 8 7 6 6 6 5 5 5 4 4 3 3 2 2 2 2 2 3 2 2 3 3 2 2 3 2 2 3 2 2 2 2 3 3 1 2 2 1 1
8 8 8 7 7 7 6 6 6 6 6 5 5 5 4 3 2 2 2 2 2 2 2 3 3 3 3 2 3 2 3 3 3 2 2 2 2 4 3 1 1 1 1
8 7 7 6 6 7 7 7 7 6 6 6 6 5 4 3 2 2 2 3 2 2 2 2 3 3 3 3 3 3 4 3 3 3 3 3 2 2 2 3 2 1 1
7 7 7 7 6 7 7 7 8 7 6 6 5 5 4 4 4 4 3 3 2 2 2 2 2 3 3 3 3 3 4 4 4 4 3 3 3 3 3 3 3 2 2
7 7 7 7 7 7 8 7 8 7 7 6 5 4 4 4 3 4 3 3 3 2 1 2 2 2 3 3 3 3 4 3 4 4 3 3 3 3 3 3 3 3 3
6 6 6 6 7 7 7 7 7 6 6 6 5 5 4 4 3 3 4 3 3 2 2 2 2 2 2 3 3 3 3 3 4 4 4 4 3 3 3 3 3 4 4
5 5 6 6 7 7 7 7 7 6 6 6 5 4 5 4 4 4 3 2 3 2 2 3 3 3 2 3 3 3 3 3 4 3 3 4 3 2 3 3 4 4 4
4 5 5 6 7 7 7 7 7 7 6 6 5 5 5 5 4 4 3 3 3 2 3 3 3 3 3 3 3 3 3 4 4 4 4 4 4 3 3 3 4 3 3
4 5 5 6 6 6 6 6 6 6 6 5 5 5 5 5 5 5 4 4 4 3 3 3 3 4 3 3 3 4 3 4 4 5 4 5 4 4 4 3 4 3 3
3 4 5 5 5 5 5 5 6 6 5 5 5 5 5 5 5 4 4 4 4 4 4 4 4 4 4 3 4 4 4 5 5 4 5 5 4 4 4 4 4 4 4
3 4 4 4 4 4 4 4 5 5 5 5 5 5 5 4 4 4 4 4 4 5 5 4 4 4 4 4 4 4 4 5 4 4 5 5 5 5 5 5 5 5 4
3 4 4 4 4 4 4 4 4 4 4 5 5 4 4 4 4 4 4 4 4 5 4 4 5 5 4 4 3 5 5 5 5 4 5 5 4 4 4 5 5 5 5
3 4 4 4 5 5 4 4 4 4 4 5 4 4 4 4 4 4 3 3 3 3 4 5 5 5 4 0 2 5 5 5 5 5 5 5 5 5 7 7 7 7 7
3 4 4 4 4 5 5 5 4 4 4 4 4 4 4 4 4 4 3 4 4 4 4 5 5 5 4 3 4 5 6 6 5 5 5 5 3 4 5 6 8 9 9
2 3 3 4 4 4 5 4 4 4 5 5 5 4 4 4 4 4 4 4 4 4 4 4 5 6 5 4 5 6 7 6 6 6 6 6 5 4 4 6 6 8 8
2 2 3 3 3 3 4 4 5 5 5 5 5 5 5 5 5 5 4 4 4 4 4 4 5 6 5 4 5 6 6 6 7 6 6 6 6 3 4 6 7 6 6
1 2 2 3 3 3 4 4 5 5 6 5 5 5 5 5 5 5 4 4 4 5 5 4 4 5 5 4 5 6 5 5 5 5 5 5 5 3 4 6 6 6 6
1 1 2 2 3 3 4 5 5 5 5 5 5 5 6 6 6 5 4 5 5 5 4 4 4 4 4 4 5 6 5 5 6 5 4 3 3 5 6 7 6 6 6
1 1 2 2 2 3 4 5 5 4 4 5 5 6 6 6 5 5 5 5 5 5 5 4 4 3 4 3 3 5 7 7 6 5 4 3 3 5 7 6 5 6 6
2 2 3 3 2 3 4 5 4 4 5 6 6 6 6 6 5 6 6 6 6 5 4 4 4 3 2 2 5 6 7 7 6 4 4 3 4 5 5 6 7 6 5
2 2 3 3 3 4 4 4 4 4 5 6 6 6 6 6 5 5 5 5 5 4 4 4 4 3 3 2 1 2 3 5 5 4 3 5 7 6 4 4 5 5 4
3 3 4 4 4 4 4 4 4 5 6 6 6 6 6 5 5 5 4 5 4 3 4 4 4 4 4 1 2 3 4 4 3 3 4 3 3 3 3 3 3 3 4
4 4 5 4 4 4 4 3 4 5 6 6 6 5 5 4 4 4 4 2 3 3 3 4 5 4 3 2 3 4 4 4 5 5 4 3 3 3 3 3 3 4 4
Wind_Direction
177 174 179 179 178 180 186 194 199 185 190 190 194 188 184 194 195 201 186 223 242 238 257 275 209 250 238 253 227 223 214 227 243 248 208 177 174 153 173 171 126 113 98
179 181 184 183 184 185 191 196 200 193 195 192 204 201 195 204 199 209 181 225 229 242 219 240 249 228 215 204 216 235 261 242 230 269 263 214 171 176 175 171 163 40 230
186 184 187 191 188 190 194 198 199 199 200 197 197 185 182 203 190 198 191 205 215 221 255 236 256 255 245 205 222 226 238 252 227 240 279 284 294 152 160 171 157 185 270
190 185 187 191 193 193 193 194 194 196 196 197 199 196 200 209 208 213 184 192 205 217 219 228 234 247 249 222 230 211 242 251 243 206 245 292 327 291 213 178 165 180 252
190 189 191 193 193 190 189 183 183 189 192 194 193 202 212 213 206 205 175 211 188 212 220 224 231 234 239 234 246 235 247 244 257 257 243 239 235 254 271 272 224 205 217
188 188 188 185 186 184 185 180 179 185 189 192 192 203 211 215 220 226 209 216 201 206 206 223 238 242 245 229 231 232 229 246 259 267 264 257 259 255 266 273 263 263 233
186 186 187 185 185 186 185 180 178 181 185 189 194 203 210 211 218 233 224 241 228 216 209 238 242 247 240 238 236 230 243 235 236 246 257 265 275 286 274 274 280 280 267
188 185 185 184 184 185 183 181 180 182 185 190 195 203 215 222 219 226 246 236 253 248 215 221 234 249 252 246 235 240 234 229 232 241 257 262 262 271 269 265 267 266 258
184 179 172 173 175 178 179 181 177 180 185 189 193 198 207 226 235 227 234 240 249 243 220 229 232 244 253 260 252 248 247 240 240 237 230 246 247 246 255 251 244 256 268
179 173 168 168 172 174 175 179 179 183 187 189 197 192 197 207 223 238 244 257 254 260 253 245 240 237 242 251 260 253 247 245 242 250 256 257 258 255 245 247 250 252 261
171 167 166 166 169 173 176 181 184 189 193 196 197 203 204 207 213 221 229 235 240 237 240 243 243 241 242 248 252 265 256 249 246 243 233 237 250 251 246 242 246 244 246
160 161 159 162 169 177 180 182 191 193 193 194 196 202 208 214 216 216 221 225 228 230 225 232 236 241 241 245 250 257 257 256 250 245 241 237 229 231 245 244 243 241 239
156 158 159 167 174 179 183 188 194 197 193 187 197 201 209 215 221 224 225 228 230 233 234 233 235 242 246 246 249 250 253 254 255 254 246 239 234 233 236 240 242 238 228
163 164 164 171 177 186 184 187 195 195 196 193 196 199 213 218 222 224 226 230 233 234 234 236 239 241 247 248 251 252 255 260 262 262 258 246 233 230 233 237 239 240 237
179 176 179 175 183 189 191 190 189 188 194 193 199 201 209 215 220 223 227 229 235 238 234 239 242 247 247 251 266 266 257 262 266 264 258 249 239 246 243 250 245 237 235
191 190 191 185 189 192 194 192 195 191 190 196 202 196 202 208 216 220 223 225 229 236 230 234 243 250 256 217 262 271 268 267 266 264 259 249 229 228 230 241 250 255 245
207 199 196 195 196 196 192 195 198 196 197 199 201 199 203 210 217 218 213 217 221 228 227 233 241 249 249 223 235 249 262 259 261 260 259 262 250 236 246 234 232 241 245
219 209 206 200 199 195 190 198 194 198 202 202 203 206 208 209 213 216 216 219 221 230 234 240 245 250 241 214 229 241 250 255 257 256 255 259 263 262 260 258 248 239 230
256 228 221 209 200 197 194 199 206 207 211 212 213 212 212 215 214 216 219 224 232 240 243 241 246 253 247 217 226 239 253 250 254 255 253 253 256 257 260 257 257 253 242
261 239 221 207 197 196 203 212 219 218 220 221 222 219 215 219 221 221 224 226 230 238 246 241 245 252 259 229 224 234 250 254 257 252 246 240 245 246 244 252 251 250 249
254 227 215 212 203 198 205 220 229 233 232 227 225 223 219 221 221 220 224 228 231 233 241 249 251 246 248 231 216 227 252 258 260 260 261 251 198 225 241 251 250 251 258
277 242 218 217 212 209 214 226 232 236 238 234 228 225 224 227 214 213 222 227 230 229 227 232 243 241 230 231 216 217 239 264 267 271 271 264 216 237 242 242 244 249 248
281 254 239 226 225 228 231 237 239 233 232 234 230 226 226 229 222 219 221 224 223 232 233 235 242 244 250 213 191 209 226 239 254 273 291 280 252 251 235 227 229 232 234
285 266 256 248 244 241 238 239 237 235 234 233 229 223 223 222 219 224 224 230 233 232 236 242 250 252 248 257 261 256 240 227 239 259 251 232 236 245 253 228 215 223 231
278 263 255 256 255 247 242 241 233 232 236 236 230 228 225 221 218 225 236 239 242 255 251 251 253 257 264 305 344 284 279 288 297 287 264 252 236 233 228 225 222 225 218
278 268 263 262 262 255 244 239 232 232 237 236 231 228 224 217 221 219 223 219 233 215 232 249 259 262 260 255 270 273 275 279 269 259 250 252 256 256 252 243 230 223 224